星链-31589 (STARLINK-31589 )

导读 | 星芒AI

STARLINK-31589 是 SpaceX Starlink 卫星互联网项目中的一颗低轨卫星,属于其第二代卫星群(v1.5 或 v2 架构)。该卫星于2023年发射,旨在为全球用户提供高速、低延迟的宽带互联网服务。它运行在约550公里高度的近地轨道,采用先进推进系统和激光通信技术,以提升网络效率和覆盖能力。作为 Starlink 计划的一部分,该卫星支持全球范围的民用和军事通信需求,助力实现全球互联网覆盖目标。

基本信息
目录编号:
59654
目录名称:
STARLINK-31589
国际标识:
2024-084A
轨道中心:
EARTH
卫星名称:
星链-31589
卫星全名:
星链-31589 (STARLINK-31589 )
卫星状态:
在轨 (已飞行593 天)
发射日期:
2024-05-06 UTC
国别 :
美国 (US)
星等 :
--
轨道信息
数据来源 国际轨道数据 AOE轨道数据
星历时间 2025-12-19T18:49:16+0800
13小时前
查看轨道信息
2025-12-13T10:00:00+0800
6天前
查看轨道信息
半长轴 6861.188km 6861.203km
偏心率 0.0001445 0.0000012
轨道倾角 43.002° 43.006°
近地点辐角 268.835° 9.671°
升交点赤经 134.781° 170.742°
平近点角 91.234° 212.404°
近地点 482.059km 483.059km
远地点 484.043km 483.077km
周期 94.267分钟 94.267分钟
每日圈数 15.275796 15.275746
详细信息
固有亮度:
5
最大亮度:
1.5
卫星平台:
Starlink v2.0 mini
覆盖范围:
全球
运营商:
太空探索技术公司
运营商所在国:
美国
制造商(研发单位):
太空探索技术公司
制造商所在国:
美国
使用方式:
暂无
卫星简介
星链(Starlink)计划是由太空探索技术公司(SpaceX)提出的一个巨型低轨卫星互联网星座项目,计划在2019年至2024年间在太空搭建由约1.2万颗卫星组成的“星链”网络,其中1584颗将部署在地球上空550千米处的近地轨道,并从2020年开始工作。该卫星仍在工作。
2D轨道图
3D轨道图
轨道高度分析图
轨道倾角分析图
轨道综合分析图
查看轨道综合分析图